Weather History for Caldwell, NJ

Change the Weather History Date:

Wednesday, June 19, 2013

  Actual Average Record
Temperature  
Mean Temperature 66 °F -  
Max Temperature 75 °F 80 °F 94 °F (1957)
Min Temperature 57 °F 59 °F 46 °F (1954)
Cooling Degree Days 1    
Growing Degree Days 16 (Base 50)    
Moisture  
Dew Point 52 °F    
Average Humidity 66    
Maximum Humidity 96    
Minimum Humidity 34    
Precipitation  
Precipitation 0.01 in - - ()
Sea Level Pressure  
Sea Level Pressure 30.03 in    
Wind  
Wind Speed 3 mph (NNE)    
Max Wind Speed 8 mph    
Max Gust Speed -    
Visibility 10 miles    
Events Rain    
Averages and records for this station are not official NWS values.
T = Trace of Precipitation, MM = Missing Value Source: NWS Daily Summary

Daily Weather History Graph

Daily Weather History Graph

Search for Another Location

Airport:

Trip Planner

Search our weather history database for the weather conditions in past years. The results will help you decide how hot, cold, wet, or windy it might be!

Date:

Astronomy

Jun. 19, 2013 Rise Set
Actual Time 5:25 AM EDT 8:31 PM EDT
Civil Twilight 4:51 AM EDT 9:05 PM EDT
Nautical Twilight 4:08 AM EDT 9:48 PM EDT
Astronomical Twilight 3:18 AM EDT 10:39 PM EDT
Moon 4:20 PM EDT (6/19) 2:09 AM EDT (6/19)
Length of Visible Light 16h 13m
Length of Day
15h 06m
Waxing Gibbous, 80% of the Moon is Illuminated
Jun 19
Waxing Gibbous
Jun 23
Full
Jun 30
Last Quarter
Jul 8
New
Jul 15
First Quarter

Hourly Weather History & Observations

Time (EDT) Temp. Dew Point Humidity Pressure Visibility Wind Dir Wind Speed Gust Speed Precip Events Conditions
12:13 AM 62.6 °F 60.8 °F 94% 29.91 in 6.0 mi Variable 4.6 mph - 0.00 in Rain Light Rain
12:53 AM 61.0 °F 59.0 °F 93% 29.92 in 10.0 mi Variable 3.5 mph - 0.01 in   Overcast
1:33 AM 60.8 °F 59.0 °F 94% 29.91 in 10.0 mi NE 3.5 mph - 0.00 in Rain Light Rain
1:53 AM 60.1 °F 59.0 °F 96% 29.92 in 10.0 mi Calm Calm - 0.00 in Rain Light Rain
2:17 AM 60.8 °F 57.2 °F 88% 29.91 in 10.0 mi Calm Calm - 0.00 in   Overcast
2:53 AM 60.1 °F 57.9 °F 93% 29.94 in 10.0 mi Calm Calm - 0.00 in   Overcast
3:34 AM 59.0 °F 55.4 °F 88% 29.92 in 10.0 mi NE 4.6 mph - N/A   Scattered Clouds
3:53 AM 57.9 °F 55.9 °F 93% 29.94 in 10.0 mi NE 4.6 mph - N/A   Clear
4:53 AM 57.9 °F 55.0 °F 90% 29.96 in 10.0 mi Calm Calm - N/A   Clear
5:53 AM 57.0 °F 54.0 °F 89% 29.97 in 10.0 mi ENE 3.5 mph - N/A   Clear
6:53 AM 57.9 °F 53.1 °F 84% 29.99 in 10.0 mi ENE 4.6 mph - N/A   Clear
7:53 AM 59.0 °F 52.0 °F 78% 30.04 in 10.0 mi Variable 3.5 mph - N/A   Clear
8:53 AM 63.0 °F 52.0 °F 67% 30.06 in 10.0 mi North 4.6 mph - N/A   Clear
9:53 AM 66.0 °F 52.0 °F 60% 30.07 in 10.0 mi ENE 5.8 mph - N/A   Clear
10:53 AM 69.1 °F 50.0 °F 51% 30.08 in 10.0 mi NE 5.8 mph - N/A   Clear
11:53 AM 71.1 °F 50.0 °F 47% 30.08 in 10.0 mi NNW 8.1 mph - N/A   Clear
12:53 PM 73.0 °F 46.9 °F 39% 30.08 in 10.0 mi NE 8.1 mph - N/A   Partly Cloudy
1:53 PM 73.9 °F 44.1 °F 34% 30.08 in 10.0 mi WNW 8.1 mph - N/A   Clear
2:53 PM 75.0 °F 45.0 °F 34% 30.09 in 10.0 mi Calm Calm - N/A   Clear
3:53 PM 75.0 °F 45.0 °F 34% 30.09 in 10.0 mi Variable 5.8 mph - N/A   Clear
4:53 PM 75.0 °F 46.0 °F 36% 30.08 in 10.0 mi Calm Calm - N/A   Clear
5:53 PM 75.0 °F 46.0 °F 36% 30.08 in 10.0 mi North 3.5 mph - N/A   Clear
6:53 PM 75.0 °F 48.0 °F 38% 30.09 in 10.0 mi Calm Calm - N/A   Clear
7:53 PM 73.0 °F 46.9 °F 39% 30.10 in 10.0 mi Calm Calm - N/A   Clear
8:53 PM 69.1 °F 52.0 °F 54% 30.12 in 10.0 mi Calm Calm - N/A   Clear
9:53 PM 64.9 °F 54.0 °F 68% 30.14 in 10.0 mi Calm Calm - N/A   Clear
10:53 PM 63.0 °F 53.1 °F 70% 30.17 in 10.0 mi South 4.6 mph - N/A   Overcast
11:53 PM 62.1 °F 53.1 °F 72% 30.19 in 10.0 mi Calm Calm - N/A   Clear